Regional Weather Roundup
Issued by NWS

Home | Current Version | Previous Version | Graphics & Text | Print | Product List | Glossary On
Versions: 1 2 3 4 5 6 7 8 9 10 11 12 13 14 15 16 17 18 19 20 21 22 23 24 25 26 27 28 29 30 31 32 33 34 35 36 37 38 39 40 41 42 43 44 45 46 47 48 49 50
000
ASUS43 KDTX 261401
RWRMI
MICHIGAN HOURLY REGIONAL WEATHER ROUNDUP
NATIONAL WEATHER SERVICE DETROIT/PONTIAC MI
1000 AM EDT FRI AUG 26 2016

NOTE: "FAIR" INDICATES FEW OR NO CLOUDS BELOW 12,000 FEET WITH NO
SIGNIFICANT WEATHER AND/OR OBSTRUCTION TO VISIBILITY.

MIZ047>049-052>055-059>063-066>070-074>076-081>083-261500-
SOUTHEAST LOWER MICHIGAN

CITY           SKY/WX    TMP DP  RH WIND       PRES   REMARKS
ADRIAN         CLOUDY    70  64  81 NW3       30.17S
ALMA           CLOUDY    70  66  86 W8        30.15R
ANN ARBOR      SUNNY     73  64  73 W3        30.16R
BAD AXE        PTSUNNY   70  65  84 NW6       30.13R
CARO           MOSUNNY   70  65  83 W6        30.13R
DETROIT CITY   MOSUNNY   73  64  73 W5        30.15R
DETROIT        PTSUNNY   74  65  73 NW5       30.16R
FLINT          PTSUNNY   73  64  73 NW5       30.15R
GROSSE ILE     MOSUNNY   73  64  71 W6        30.15R
HILLSDALE      CLOUDY    72  64  77 CALM      30.17S
HOWELL         MOSUNNY   72  64  78 W5        30.16R

CITY           SKY/WX    TMP DP  RH WIND       PRES   REMARKS
JACKSON        MOSUNNY   71  66  84 W3        30.17R
LAMBERTVILLE   SUNNY     75  64  67 N3        30.16F
LANSING        PTSUNNY   71  63  75 W6        30.16R
LAPEER         FAIR      70  64  81 N6        30.15R
MASON          MOSUNNY   71  64  78 NW5       30.16S
MONROE         SUNNY     74  66  77 W10       30.15S
MT. CLEMENS    PTSUNNY   74  64  71 W5        30.12R
PONTIAC        PTSUNNY   72  63  73 W3        30.15R
PORT HURON     SUNNY     70  64  83 W3        30.14R
TRI CITIES     MOSUNNY   70  64  81 W6        30.15R
MIDLAND        FAIR      68  62  82 CALM      30.13R
TROY           MOSUNNY   74  62  66 CALM      30.16R
SAGINAW HB     MOSUNNY   70  63  78 SW6       30.13R
$$
MIZ043>046-050>051-056>058-064>065-071>073-077>080-261500-
SOUTHWEST LOWER MICHIGAN

CITY           SKY/WX    TMP DP  RH WIND       PRES   REMARKS
BATTLE CREEK   CLOUDY    69  65  86 CALM      30.18R
BENTON HARBOR  MOSUNNY   75  66  73 VRB3      30.15S
BIG RAPIDS     SUNNY     70  62  75 W7        30.14R
COLDWATER      MOSUNNY   71  68  91 CALM      30.17S
FREMONT        FAIR      69  62  79 NW6       30.15R
HOLLAND        MOSUNNY   73  64  73 CALM      30.17R
GRAND RAPIDS   PTSUNNY   70  62  76 W6        30.17R
IONIA          FAIR      67  63  86 W5        30.15R
KALAMAZOO      PTSUNNY   71  64  78 CALM      30.17R
LUDINGTON      MOSUNNY   69  60  71 W8        30.14R
MARSHALL       PTSUNNY   70  68  94 CALM      30.16S
MOUNT PLEASANT MOSUNNY   70  64  80 W5        30.14R
MUSKEGON       MOSUNNY   72  62  71 CALM      30.16R
SOUTH HAVEN    MOSUNNY   75  67  77 CALM      30.17R
$$
MIZ016>042-261500-
NORTHERN LOWER MICHIGAN

CITY           SKY/WX    TMP DP  RH WIND       PRES   REMARKS
ALPENA         SUNNY     71  57  61 W7        30.10R
BEAVER ISLAND  SUNNY     68  59  74 W7        30.11R
BELLAIRE       MOSUNNY   70  58  64 W5        30.12R
CADILLAC       MOSUNNY   69  61  76 W7        30.13S
CHARLEVOIX     MOSUNNY   70  59  69 W10G16    30.14R
FRANKFORT      SUNNY     70  59  68 W8        30.13R
GAYLORD        MOSUNNY   68  56  65 W9        30.12R
GRAYLING       SUNNY     69  60  74 W7        30.13S
HARBOR SPRINGS SUNNY     70  59  69 W6        30.11R
HOUGHTON LAKE  SUNNY     68  59  73 W5        30.14R
MANISTEE       SUNNY     70  59  68 W9        30.13S
OSCODA         SUNNY     71  57  61 NW7       30.10R
PELLSTON       SUNNY     69  59  70 W6        30.10R
ROGERS CITY    SUNNY     70  59  68 W6        30.10R
TRAVERSE CITY  MOSUNNY   70  59  68 SW5       30.10S
$$
MIZ007>008-015-261500-
EASTERN UPPER MICHIGAN

CITY           SKY/WX    TMP DP  RH WIND       PRES   REMARKS
KINROSS        SUNNY     64  59  83 VRB5      30.09R
MACKINAC ISLAN SUNNY     67  59  75 W8        30.09R
NEWBERRY       SUNNY     65  59  80 W7        30.08S
S. S. MARIE    PTSUNNY   64  59  83 SW6       30.07R
$$
MIZ004>006-011>014-085-261500-
CENTRAL UPPER MICHIGAN

CITY           SKY/WX    TMP DP  RH WIND       PRES   REMARKS
MANISTIQUE     SUNNY     66  58  75 W6        30.09R
ESCANABA       SUNNY     65  57  75 W9        30.11R
MENOMINEE      SUNNY    N/A N/A N/A NW6       30.14R
SAWYER-GWINN   MOSUNNY   63  55  77 NW7       30.11R
$$
MIZ001>003-009>011-084-261500-
WESTERN UPPER MICHIGAN

CITY           SKY/WX    TMP DP  RH WIND       PRES   REMARKS
IRON MOUNTAIN  SUNNY     62  54  74 W7        30.13R
HOUGHTON       CLOUDY    61  54  77 NW10      30.10R
COPPER HARBOR    N/A     62  57  83 NE9       30.09R
IRONWOOD       CLOUDY    60  56  86 W9        30.16R
$$

ABBREVIATIONS USED IN REMARKS
   TC - TEMPERATURE IN CELSIUS
  WCI - WIND CHILL INDEX
   HX - HEAT INDEX
  VSB - VISIBILITY





USA.gov is the U.S. government's official web portal to all federal, state and local government web resources and services.